S-NET B (43187 NORAD) Tracking and Keplerian Element Data

This shows tracking and keplerian element data for the satellite.

Feedback or suggestion? Click here.




ElementValue
Catalog43187
NameS-NET B
Epoch Orbit26231
Epoch Day324.71594141
Epoch Year2022
RAAN227.3474
Inclination97.646
Eccentricity0.0011066
Argument of Perigee126.7195
Mean Anonmoly233.5046
Mean Motion14.98564074
Decay Rate1.372E-05
L11 43187U 18014H 22324.71594141 .00001372 00000+0 11923-3 0 9993
L22 43187 97.6460 227.3474 0011066 126.7195 233.5046 14.98564074262316



Live tracking and technical data element details for S-NET B (NORAD 43187). S-NET B can be tracked NOW for your location showing map with azimuth and elevation plus other details from your city location.







IsCatalogInMostPopularTable: catalog: 43187, numindb: 629
Update: records affected: 1



GetName: 43187 S-NET B

Hit Count: updated at: Mon, 28 Nov 2022 04:16:34 GMT